Weather reports worldwide

Advertisment
Kinlochewe, United Kingdom (99092): temperature & dewpoint: 11.08.2017 08:00:00 - 17.08.2017 08:00:00 (BST)Kinlochewe, United Kingdom (99092): temperature -20cm: 11.08.2017 08:00:00 - 17.08.2017 08:00:00 (BST)Kinlochewe, United Kingdom (99092): wind speed: 11.08.2017 08:00:00 - 17.08.2017 08:00:00 (BST)Kinlochewe, United Kingdom (99092): wind direction: 11.08.2017 08:00:00 - 17.08.2017 08:00:00 (BST)Kinlochewe, United Kingdom (99092): visibility: 11.08.2017 08:00:00 - 17.08.2017 08:00:00 (BST)Kinlochewe, United Kingdom (99092): precipitation: 11.08.2017 08:00:00 - 17.08.2017 08:00:00 (BST)
Date & Time tt [°C] td [°C] tt -20cm [°C] ff [km/h] ff [kn] dd vv [km] rr [mm]
17.08.2017 08:00:00 14,9 11,1 - - - - - 0,0
17.08.2017 07:00:00 14,3 10,2 - - - - - 0,0
17.08.2017 06:00:00 14,0 10,1 - - - - - 0,0
17.08.2017 05:00:00 13,6 11,4 - - - - - 0,4
17.08.2017 04:00:00 13,3 10,9 - - - - - 0,0
17.08.2017 03:00:00 13,6 10,7 - - - - - 0,2
17.08.2017 02:00:00 14,8 10,4 - - - - - 0,0
17.08.2017 01:00:00 15,0 10,6 - - - - - 0,0
17.08.2017 00:00:00 15,4 11,1 - - - - - 0,0
16.08.2017 23:00:00 16,2 11,5 - - - - - 0,0
16.08.2017 22:00:00 16,6 13,7 - - - - - 0,6
16.08.2017 21:00:00 14,9 14,1 - - - - - 0,6
16.08.2017 20:00:00 14,7 13,6 - - - - - 0,2
16.08.2017 19:00:00 15,3 13,9 - - - - - 0,0
16.08.2017 18:00:00 15,8 14,0 - - - - - 0,4
16.08.2017 17:00:00 16,7 13,0 - - - - - 0,2
16.08.2017 16:00:00 17,3 12,2 - - - - - 0,0
16.08.2017 15:00:00 17,2 11,9 - - - - - 0,0
16.08.2017 14:00:00 15,7 11,2 - - - - - 0,0
16.08.2017 13:00:00 15,8 10,8 - - - - - 0,0
16.08.2017 12:00:00 16,0 9,8 - - - - - 0,0
16.08.2017 11:00:00 15,5 10,1 - - - - - 0,0
16.08.2017 10:00:00 13,5 11,0 14,2 22 12 N 10 0,0
16.08.2017 09:00:00 12,2 10,4 - - - - - 0,0
16.08.2017 08:00:00 11,6 9,8 - - - - - 0,0
16.08.2017 07:00:00 11,5 9,6 - - - - - 0,0
16.08.2017 06:00:00 11,9 9,9 - - - - - 0,0
16.08.2017 05:00:00 11,5 10,3 - - - - - 0,0
16.08.2017 04:00:00 12,3 10,0 - - - - - 0,0
16.08.2017 03:00:00 11,4 10,7 - - - - - 0,2
16.08.2017 02:00:00 12,2 10,6 - - - - - 0,4
16.08.2017 01:00:00 11,5 10,8 - - - - - 1,0
16.08.2017 00:00:00 12,0 10,8 - - - - - 0,0
15.08.2017 23:00:00 12,0 10,6 - - - - - 0,6
15.08.2017 22:00:00 12,7 9,6 - - - - - 0,0
15.08.2017 21:00:00 12,9 10,7 - - - - - 0,6
15.08.2017 20:00:00 14,4 9,3 - - - - - 0,0
15.08.2017 19:00:00 15,6 8,8 - - - - - 0,0
15.08.2017 18:00:00 17,1 9,6 - - - - - 0,0
15.08.2017 17:00:00 17,6 10,8 - - - - - 0,0
15.08.2017 16:00:00 14,4 12,3 - - - - - 1,6
15.08.2017 15:00:00 16,1 10,1 - - - - - 0,0
15.08.2017 14:00:00 18,7 11,5 - - - - - 0,0
15.08.2017 13:00:00 18,6 12,0 - - - - - 0,0
15.08.2017 12:00:00 16,0 10,1 - - - - - 0,0
15.08.2017 11:00:00 15,2 9,5 - - - - - 0,0
15.08.2017 10:00:00 14,1 10,8 13,9 - - - 10 0,0
15.08.2017 09:00:00 13,7 11,0 - - - - - 0,2
15.08.2017 08:00:00 12,0 11,1 - - - - - 0,0
15.08.2017 07:00:00 11,7 10,5 - - - - - 0,0
15.08.2017 06:00:00 11,6 9,5 - - - - - 0,0
15.08.2017 05:00:00 12,5 10,2 - - - - - 0,0
15.08.2017 04:00:00 13,7 10,0 - - - - - 0,0
15.08.2017 03:00:00 13,9 10,3 - - - - - 0,0
15.08.2017 02:00:00 13,6 11,2 - - - - - 0,0
15.08.2017 01:00:00 12,4 11,3 - - - - - 0,0
15.08.2017 00:00:00 12,8 11,5 - - - - - 0,0
14.08.2017 23:00:00 13,4 11,8 - - - - - 0,0
14.08.2017 22:00:00 14,1 11,8 - - - - 10 0,0
14.08.2017 21:00:00 14,2 12,9 - - - - - 0,0
14.08.2017 20:00:00 15,2 14,6 - - - - - 2,0
14.08.2017 19:00:00 14,7 14,2 - - - - - 1,8
14.08.2017 18:00:00 14,9 14,3 - - - - - 0,2
14.08.2017 17:00:00 14,6 13,9 - - - - - 2,4
14.08.2017 16:00:00 14,7 13,0 - - - - - 2,2
14.08.2017 15:00:00 14,2 12,4 - - - - - 1,0
14.08.2017 14:00:00 14,4 11,1 - - - - - 0,4
14.08.2017 13:00:00 13,1 11,1 - - - - - 1,2
14.08.2017 12:00:00 13,0 10,2 - - - - - 0,2
14.08.2017 11:00:00 12,1 9,7 - - - - - 0,0
14.08.2017 10:00:00 11,4 9,5 14,0 159 86 N 4,5 0,8
14.08.2017 09:00:00 11,1 9,2 - - - - - 0,6
14.08.2017 08:00:00 10,7 9,8 - - - - - 0,2
14.08.2017 07:00:00 9,9 8,5 - - - - - 0,0
14.08.2017 06:00:00 9,5 7,8 - - - - - 0,0
14.08.2017 05:00:00 10,0 7,7 - - - - - 0,0
14.08.2017 04:00:00 10,0 7,9 - - - - - 0,0
14.08.2017 03:00:00 9,9 8,0 - - - - - 0,0
14.08.2017 02:00:00 8,6 7,2 - - - - - 0,0
14.08.2017 01:00:00 8,9 7,5 - - - - - 0,0
14.08.2017 00:00:00 9,8 8,1 - - - - - 0,0
13.08.2017 23:00:00 10,9 9,3 - - - - - 0,0
13.08.2017 22:00:00 11,7 9,0 - - - - - 0,0
13.08.2017 21:00:00 13,3 8,6 - - - - - 0,0
13.08.2017 20:00:00 14,0 7,9 - - - - - 0,0
13.08.2017 19:00:00 14,3 8,1 - - - - - 0,0
13.08.2017 18:00:00 15,3 8,0 - - - - - 0,0
13.08.2017 17:00:00 15,4 8,4 - - - - - 0,0
13.08.2017 16:00:00 14,8 11,8 - - - - - 0,0
13.08.2017 15:00:00 16,3 6,9 - - - - - 0,0
13.08.2017 14:00:00 17,4 7,7 - - - - - 0,0
13.08.2017 13:00:00 17,0 7,3 - - - - - 0,0
13.08.2017 12:00:00 14,5 8,9 - - - - - 0,2
13.08.2017 11:00:00 14,4 9,3 - - - - - 0,0
13.08.2017 10:00:00 11,7 10,1 14,2 - - - - 1,0
13.08.2017 09:00:00 12,0 10,5 - - - - - 0,0
13.08.2017 08:00:00 10,2 10,1 - - - - - 0,0
13.08.2017 07:00:00 9,1 9,0 - - - - - 0,0
13.08.2017 06:00:00 8,0 7,6 - - - - - 0,0
13.08.2017 05:00:00 8,6 8,0 - - - - - 0,0
13.08.2017 04:00:00 9,6 8,6 - - - - - 0,2
13.08.2017 03:00:00 9,8 8,5 - - - - - 2,8
13.08.2017 02:00:00 9,8 8,9 - - - - - 0,2
13.08.2017 01:00:00 10,4 8,9 - - - - - 0,0
13.08.2017 00:00:00 10,8 8,7 - - - - - 0,6
12.08.2017 23:00:00 11,3 8,4 - - - - - 0,0
12.08.2017 22:00:00 11,9 7,9 - - - - - 0,0
12.08.2017 21:00:00 12,2 7,0 - - - - - 0,0
12.08.2017 20:00:00 13,6 8,4 - - - - - 0,0
12.08.2017 19:00:00 13,8 7,9 - - - - - 0,0
12.08.2017 18:00:00 15,9 8,2 - - - - - 0,0
12.08.2017 17:00:00 16,1 7,5 - - - - - 0,0
12.08.2017 16:00:00 14,2 8,1 - - - - - 0,0
12.08.2017 15:00:00 15,7 9,0 - - - - - 0,0
12.08.2017 14:00:00 16,4 10,3 - - - - - 0,0
12.08.2017 13:00:00 14,2 8,6 - - - - - 0,0
12.08.2017 12:00:00 12,7 10,1 - - - - - 0,4
12.08.2017 11:00:00 12,6 10,3 - - - - - 0,2
12.08.2017 10:00:00 13,4 11,6 14,2 150 81 N 3,7 0,0
12.08.2017 09:00:00 10,9 10,0 - - - - - 2,2
12.08.2017 08:00:00 11,5 11,4 - - - - - 0,0
12.08.2017 07:00:00 10,2 10,1 - - - - - 0,0
12.08.2017 06:00:00 9,5 9,4 - - - - - 0,0
12.08.2017 05:00:00 8,7 8,5 - - - - - 0,0
12.08.2017 04:00:00 8,9 8,6 - - - - - 0,0
12.08.2017 03:00:00 9,1 8,4 - - - - - 0,2
12.08.2017 02:00:00 11,1 10,0 - - - - - 0,0
12.08.2017 01:00:00 11,5 10,7 - - - - - 0,0
12.08.2017 00:00:00 11,6 11,3 - - - - - 0,4
11.08.2017 23:00:00 11,7 11,2 - - - - - 0,4
11.08.2017 22:00:00 11,7 11,0 - - - - - 1,0
11.08.2017 21:00:00 13,4 11,9 - - - - - 0,0
11.08.2017 20:00:00 15,0 11,0 - - - - - 0,0
11.08.2017 19:00:00 15,7 10,9 - - - - - 0,0
11.08.2017 18:00:00 14,7 12,7 - - - - - 0,4
11.08.2017 17:00:00 16,0 11,9 - - - - - 0,0
11.08.2017 16:00:00 17,6 10,9 - - - - - 0,0
11.08.2017 15:00:00 17,4 11,0 - - - - - 0,0
11.08.2017 14:00:00 16,8 11,2 - - - - - 0,0
11.08.2017 13:00:00 16,3 12,3 - - - - - 0,2
11.08.2017 12:00:00 16,0 12,5 - - - - - 0,0
11.08.2017 11:00:00 15,8 14,6 - - - - - 0,6
11.08.2017 10:00:00 15,9 14,0 14,2 48 26 N 2,0 0,4
11.08.2017 09:00:00 15,8 13,7 - - - - - 0,2
11.08.2017 08:00:00 15,1 13,2 - - - - - 1,2

tt = temperature
td = dewpoint
tt -20cm = temperature -20cm
ff = wind speed
dd = wind direction
vv = visibility
rr = precipitation

Next stations